Weather Roundup
Issued by NWS

Home | Current Version | Previous Version | Graphics & Text | Print | Product List | Glossary Off
Versions: 1 2 3 4 5 6 7 8 9 10 11 12 13 14 15 16 17 18 19 20 21 22 23 24 25 26 27 28 29 30 31 32 33 34 35 36 37 38 39 40 41 42 43 44 45 46 47 48 49 50

000
NZUS93 KARX 261010
HRRWXR

CURRENT HOURLY OBSERVATIONS ACROSS
MUCH OF THE UPPER MISSISSIPPI VALLEY
NATIONAL WEATHER SERVICE LA CROSSE WI
400 AM CST MON JAN 26 2015


...SOUTHEAST MINNESOTA...


CITY           SKY/WX    TMP DP  RH WIND       PRES   REMARKS
ROCHESTER      LGT SNOW  24  20  84 S13       29.86F FOG     WCI  12
ROCHESTER/MAYO CLOUDY    24  20  85 S8        29.87F WCI  15
WINONA         CLOUDY    25  19  80 SE3       29.93F
AUSTIN         CLOUDY    27  23  86 S10       29.85F WCI  17
ALBERT LEA     CLOUDY    28  27  93 S10       29.83F WCI  19
DODGE CENTER   FLURRIES  25  23  93 S15       29.84F WCI  12
PRESTON        CLOUDY    24  20  85 SW13      29.88F WCI  12
OWATONNA       CLOUDY    27  23  86 S10G17    29.82F WCI  17
FARIBAULT      CLOUDY    27  25  93 S9        29.81F WCI  17
$$

...ELSEWHERE IN MINNESOTA...


CITY           SKY/WX    TMP DP  RH WIND       PRES   REMARKS
MINNEAPOLIS    CLOUDY    25  20  81 S9        29.80F WCI  15
INTNL FALLS    LGT SNOW  22  19  89 VRB6      29.58F FOG     WCI  14
DULUTH         SNOW      19  15  84 S9        29.70F VSB 1/2 WCI   8
RED WING       LGT SNOW  25  21  86 S5        29.86F WCI  19
REDWOOD FALLS  CLOUDY    33  30  88 S24G30    29.72F WCI  20
MANKATO        CLOUDY    30  27  86 S14       29.80R WCI  20
WORTHINGTON    CLOUDY    32  28  86 SW16      29.83F WCI  21
FAIRMONT       CLOUDY    30  27  86 SW17      29.82F WCI  18
$$

...SOUTHWEST WISCONSIN...


CITY           SKY/WX    TMP DP  RH WIND       PRES   REMARKS
LA CROSSE      CLOUDY    23  14  68 S12       29.94F WCI  12
PRAIRIE DU CHI CLOUDY    21  12  68 CALM      29.99S
BOSCOBEL       CLOUDY    19  13  77 CALM      29.99F
LONE ROCK      CLOUDY    15  10  80 E3        29.98F
PLATTEVILLE    CLOUDY    17  13  85 CALM      29.96F
FORT MC COY    CLOUDY    20  12  72 S5        29.95F WCI  13
CAMP DOUGLAS   CLOUDY    17  15  89 S7        29.94F WCI   8
VIROQUA        CLOUDY    18  13  80 S9        29.92F WCI   7
WIS DELLS      MOCLDY    13  10  87 CALM      29.96F
$$

...ELSEWHERE IN WISCONSIN...


CITY           SKY/WX    TMP DP  RH WIND       PRES   REMARKS
MILWAUKEE      MOCLDY    17  11  77 W3        29.97F
MADISON        PTCLDY    13   9  84 CALM      29.97F
GREEN BAY      CLOUDY    13   9  84 CALM      29.97F
EAU CLAIRE     CLOUDY    20  13  74 S9        29.87F WCI   9
BLACK RVR FLS  CLOUDY    19  11  70 SE3       29.92F
MEDFORD        CLOUDY    13   8  79 S7        29.87F WCI   3
WAUSAU         CLOUDY    12   6  77 S5        29.90F WCI   4
WIS RAPIDS     CLOUDY    14   7  73 S5        29.96F WCI   6
MARSHFIELD     CLOUDY    15   7  70 S9        29.90F WCI   3
RICE LAKE      LGT SNOW  20  15  82 SE10      29.84F WCI   9
$$

...NORTHEAST IOWA...


CITY           SKY/WX    TMP DP  RH WIND       PRES   REMARKS
DECORAH        CLOUDY    23  18  80 S7        29.93R WCI  15
MASON CITY     CLOUDY    28  24  85 SW9       29.94R WCI  19
CHARLES CITY   CLOUDY    28  25  86 SW8       29.96R WCI  20
OELWEIN        CLOUDY    23  18  80 S9        29.96S WCI  13
$$

...ELSEWHERE IN IOWA...


CITY           SKY/WX    TMP DP  RH WIND       PRES   REMARKS
DES MOINES     CLOUDY    32  25  75 SW7       29.97F WCI  26
IOWA CITY      CLOUDY    21  15  78 S7        30.01F WCI  12
FORT DODGE     CLOUDY    30  27  86 SW7       29.96R WCI  23
$$

...NORTHERN ILLINOIS...


CITY           SKY/WX    TMP DP  RH WIND       PRES   REMARKS
CHICAGO-OHARE  MOCLDY    22  14  71 N3        29.97S
CHICAGO-MIDWAY PTCLDY    22  15  75 N6        29.97F WCI  14
MOLINE         PTCLDY    14  10  84 SW3       30.02F
ROCKFORD       PTCLDY    13   8  81 NW3       30.01F
PEORIA         CLEAR     20  14  77 CALM      30.01F
$$

NOTE: "FAIR" INDICATES FEW OR NO CLOUDS BELOW 12,000 FEET WITH NO
SIGNIFICANT WEATHER AND/OR OBSTRUCTIONS TO VISIBILITY. WIND
SPEEDS ARE IN MILES-PER-HOUR.



USA.gov is the U.S. government's official web portal to all federal, state and local government web resources and services.